Погода в Тайпаке

Погода в Тайпаке : погода сейчас, прогноз погоды и архив. Всё, что Вы хотите узнать о погоде в Тайпаке!

Хотите узнать прогноз погоды в Тайпаке? Тогда Вам сюда: Погода в Тайпаке

Поиск расширенной информации на нашем сайте:

Другие новости

Новости СМИ2

Главная страница сайта

Новости сайта

03.07.2017

Напоминаем, что на нашем специализированном сайте Метеоцентр.Азия вы можете получить высокодетализированные автоматические прогнозы погоды по пунктам России, СНГ и мира в авиационном формате (включающие направление и скорость ветра, видимость, явления погоды, количество и форму облачности, нижнюю и верхнюю границу облачности).


Погода в Тайпаке - сегодня

Время (UTC), дата Ветер
(°,м/с) 
Видим.   Явления Облачность Т
(°С)
Тd
(°С)
f(%) Тe
(°С)
Pmin
(гПа)
dP
(гПа)
Po
(мм)
O2
(г/м3)
Тmin Tmax R s Состояние
почвы
18 18.01.18 080 (В) н/о    ясно 
-21.4 -24.7 75 -27  1024  -0.2  768  337    -16.4       
21 18.01.18 080 (В) н/о    ясно 
-21.3 -24.6 75 -27  1023.8  -0.2  768  337           
00 19.01.18 100 (В) н/о    ясно 
-20.9 -23.4 80 -27  1022.9  -0.9  767  336           
03 19.01.18 100 (В) н/о  слаб. снег  10/10 600 м 
[Ns]
-17.3 -19.9 80 -22  1022  -0.9  766  331        11  равномерный
сухой снег
100% 
06 19.01.18 110 (В) 10 км  слаб. снег  10/10 600 м 
[Ns]
-13.8 -16.5 80 -18  1023  767  327  -22.6    0.0     
09 19.01.18 100 (В) 10 км  {снег}  10/10 600 м 
[Ns]
-9.9 -12.1 84 -15  1022.9  -0.1  767  322           
12 19.01.18 100 (В) 10 км  {снег}  10/10 600 м 
[Sc]
-8.4 -10.3 86 -11  1023.1  0.2  767  320           
15 19.01.18 120 (ЮВ) н/о    ясно 
-9.7 -10.9 91 -14  1023.6  0.5  768  322    -7.9  0.0     
18 19.01.18 100 (В) н/о    10/10 600 м 
[Sc]
-9.5 -11.1 88 -12  1023.9  0.3  768  322    -7.9  0.0     
21 19.01.18 100 (В) н/о    10/10 600 м 
[Sc]
-8.5 -10.4 86 -11  1024.2  0.3  768  320           
00 20.01.18 070 (В) н/о    10/10 600 м 
[Sc]
-9.3 -11.4 85 -15  1023.8  -0.4  768  321           
03 20.01.18 040 (СВ) н/о    10/10 600 м 
[Sc]
-8.7 -11.1 83 -13  1024.4  0.6  768  321  -10      11  равномерный
сухой снег
100% 
06 20.01.18 090 (В) 10 км    10/10 600 м 
[Sc]
-8.8 -11.7 79 -13  1024.8  0.4  768  321  -10         
09 20.01.18 080 (В) 10 км    9/9 600 м 
[Sc]
-7.8 -11.4 75 -11  1024.3  -0.5  768  320           
12 20.01.18 090 (В) 10 км    6/0 средняя 
[Ac trans]
-7.7 -10.4 81 -9  1024  -0.3  768  319           
15 20.01.18 140 (ЮВ) н/о    ясно 
-10.5 -11.8 90 -10  1025.4  1.4  769  323    -7.2       
18 20.01.18 100 (В) н/о    ясно 
-11.9 -13.8 86 -14  1024.8  -0.6  768  325    -7.2       
21 20.01.18 110 (В) н/о    ясно 
-13.8 -15.5 87 -14  1025.2  0.4  769  328           
00 21.01.18 110 (В) н/о    ясно 
-13.4 -15.1 87 -17  1025.2  769  327           
03 21.01.18 120 (ЮВ) н/о    ясно 
-15.1 -16.9 86 -19  1024.4  -0.8  768  329        11  равномерный
сухой снег
100% 
06 21.01.18 080 (В) 10 км    8/0 средняя 
[Ac trans]
-13.3 -16 80 -18  1024.6  0.2  768  327  -15.2         
09 21.01.18 080 (В) 10 км    10/10 600 м 
[Sc]
-9.8 -12.9 78 -14  1023.6  -1  768  322           
12 21.01.18 100 (В) 10 км    10/10 600 м 
[Sc]
-8.4 -11.2 80 -12  1022.4  -1.2  767  320           
15 21.01.18 110 (В) н/о    10/10 600 м 
[Sc]
-8.7 -11.6 79 -14  1022  -0.4  766  320    -8.2       
18 21.01.18 080 (В) н/о    10/10 600 м 
[Sc]
-8.1 -10 86 -12  1021.8  -0.2  766  319    -8.2       
Время (UTC), дата Ветер
(°,м/с) 
Видим.   Явления Облачность Т
(°С)
Тd
(°С)
f(%) Тe
(°С)
Pmin
(гПа)
dP
(гПа)
Po
(мм)
O2
(г/м3)
Тmin Tmax R s Состояние
почвы

Для получения пояснительной информации подведите курсор к названию столбца.

ПОГОДА в Тайпаке - архив

Всё, что Вы хотите узнать о погоде в Тайпаке - удобно и подробно!

Выберите нужную дату (начиная с 1 января 2015* года) и нажмите кнопку "Найти".
Будут отображены архивные сводки погоды по пункту Тайпак, начиная с указанной даты.


Отображать данные в формате CSV (для использования в таблицах Excel)


Внимание! Наш архив погоды предназначен исключительно для личного некоммерческого использования в познавательных целях. Если Вам необходимы официальные справки о состоянии погоды (для производственных, юридических, коммерческих и т.п. целей), обращайтесь в органы Росгидромета.

*Примечание: данная дата относится к архиву по метеостанциям СССР (Россия, СНГ, Балтия).
Архив по метеостанциям Зарубежной Европы и Азии (кроме Китая) хранится 10 дней, по другим регионам земного шара (Китай, Африка, Америка, Австралия, Океания) - 1 день.

Тайпак - район местоположения метеостанции


Название, широта, долгота, высота метеостанции:
Тайпак (Калмыково) 49.1°ш. 51.9°д. 2 м над ур. моря [Казахстан]

Дополнительная информация

В oтличие oт бoльшинства пoгoдных сайтoв мы публикуем пoдрoбную метеoинфoрмацию в детальнoм прoфессиoнальнoм фoрмате.

Характеристики температуры и влажнoсти вoздуха измеряются на высoте 2 м в тени вдали oт зданий и деревьев.
Скoрoсть ветра измеряется на высoте 10 м (на урoвне рoста челoвека скoрoсть ветра ниже в 1.5-2 раза). Если метеoстанция нахoдится в гoрoде или в лесу, тo скoрoсть ветра занижена на 2-4 м/с пo сравнению с oткрытым местoм. Скoрoсть ветра над акватoриями крупных рек и oзёр, а также на вершинах хoлмoв на 2-5 м/с выше, чем в oбычных услoвиях.
Атмoсфернoе давление в разных тoчках местнoсти мoжет значительнo oтличаться oт давления на метеoстанции, в зависимoсти oт услoвий рельефа (при пoдъёме на 10 м давление пoнижается примернo на 1 мм рт.ст.).